CAPE
0 0 0 0 0 0 0 0 0 0 0 0 0 0 0 0 0 0 0 0 0 7 1 1 2 3 4 5 6 5 5 4 6 5 4 7 7 9 15 14 10 5 9
0 0 0 0 0 0 0 0 0 0 0 0 0 0 0 0 0 0 0 0 0 0 0 0 0 3 5 5 5 5 5 6 6 5 7 6 2 12 8 9 2 6 7
0 0 0 0 0 0 0 0 0 0 0 0 0 0 0 0 0 0 0 0 0 0 0 0 0 0 3 5 5 5 7 6 5 5 7 7 3 4 10 4 3 7 4
0 0 0 0 0 0 0 0 0 0 0 0 0 0 0 0 0 0 0 0 0 0 0 0 0 0 1 3 5 5 4 4 4 4 6 7 6 6 3 4 4 8 6
0 0 0 0 0 0 0 0 0 0 0 0 0 0 0 0 0 0 0 0 0 0 0 0 0 0 0 0 1 4 2 2 2 2 2 5 5 3 6 4 4 5 4
0 0 0 0 0 0 0 0 0 0 0 0 0 0 0 0 0 0 0 0 0 0 0 0 0 0 0 0 0 1 2 1 1 1 1 3 2 1 4 6 2 4 5
0 0 0 0 0 0 0 0 0 0 0 0 0 0 0 0 0 0 0 0 0 0 0 0 0 0 0 0 0 0 1 3 2 1 0 1 2 0 0 3 5 3 4
0 0 0 0 0 0 0 0 0 0 0 0 0 0 3 0 0 0 0 0 0 0 0 0 0 0 0 0 0 0 0 0 1 1 1 1 2 2 1 1 2 2 4
0 0 0 0 0 0 0 0 0 0 0 0 0 5 4 1 0 0 0 0 0 0 0 0 0 0 0 0 0 0 0 0 0 1 1 0 1 1 2 2 3 3 3
0 0 0 0 0 0 0 0 0 0 0 0 0 0 1 0 0 0 0 0 0 0 0 0 0 0 0 0 0 0 0 0 0 0 0 0 0 0 1 0 3 1 2
0 0 0 0 0 0 0 0 0 0 0 0 1 0 0 0 0 0 0 0 0 0 0 0 0 0 0 0 0 0 0 0 0 0 0 0 0 0 0 1 1 2 2
0 0 0 0 0 0 0 0 0 0 0 0 1 1 2 0 0 0 0 0 0 0 0 0 0 0 0 0 0 0 0 0 0 0 0 0 0 0 0 0 1 1 1
0 0 0 0 0 0 0 0 0 0 0 0 0 1 1 0 0 0 0 0 0 0 0 0 0 0 0 0 0 0 0 0 0 0 0 0 0 0 0 0 0 0 0
0 0 0 0 0 0 0 0 0 0 1 1 0 1 1 1 1 0 0 0 0 0 0 0 0 0 0 0 0 0 0 0 0 0 0 0 0 0 0 0 0 0 0
0 0 0 0 0 0 0 0 0 0 1 0 3 1 3 1 1 1 1 0 1 2 0 0 0 0 0 0 0 0 0 0 0 0 0 0 0 0 0 0 0 0 0
0 0 0 0 0 0 0 0 1 0 1 1 2 3 2 1 1 1 0 1 1 2 1 0 0 0 2 2 0 0 0 0 0 0 0 0 0 0 0 0 0 0 0
0 0 0 0 0 0 0 0 0 1 7 4 2 4 1 1 2 1 0 1 1 2 2 0 1 2 3 3 4 0 0 0 0 0 0 0 0 0 0 0 0 0 0
0 0 0 0 0 0 0 0 4 14 4 3 8 7 0 0 0 2 0 0 1 1 1 2 0 6 3 3 1 0 0 0 0 0 0 0 0 0 0 0 0 0 0
0 0 0 0 0 2 5 6 11 5 2 0 9 0 0 0 0 0 0 0 0 1 0 0 0 4 1 2 1 0 0 0 0 0 0 0 0 0 0 0 0 0 0
0 0 0 0 0 1 0 2 0 0 0 0 0 0 0 0 0 0 0 0 0 0 0 0 1 1 1 2 1 0 0 0 0 0 0 0 0 0 1 1 0 1 1
0 0 0 0 0 0 0 0 0 0 0 0 0 0 0 0 0 1 1 0 0 0 0 1 1 0 0 2 0 0 0 0 0 0 0 0 0 0 0 0 0 0 0
0 0 0 0 0 0 0 0 0 1 0 0 1 0 0 0 0 0 1 1 0 1 0 0 0 0 0 0 0 0 0 0 0 0 0 0 0 0 0 0 0 0 0
0 0 0 0 0 0 0 0 0 0 0 0 0 0 0 0 0 0 0 2 1 1 0 0 0 0 0 0 0 0 0 0 0 0 0 0 0 0 0 0 0 0 0
0 0 0 0 0 0 0 0 0 0 0 0 0 0 0 0 0 0 0 0 1 0 0 0 0 0 0 0 0 0 0 0 0 0 0 0 0 0 0 0 0 0 0
0 0 0 0 0 0 0 0 0 0 0 0 0 0 0 0 0 0 2 2 1 0 0 0 0 0 0 0 0 0 0 0 0 0 0 0 0 0 0 0 0 0 0
0 0 0 0 0 0 0 0 0 0 0 0 0 0 0 0 0 0 3 1 2 1 1 0 1 1 1 1 2 0 0 0 0 0 0 0 0 0 0 0 0 0 0
CIN
-0 -0 -0 -0 -0 -0 -0 -0 -0 -0 -0 -0 -0 -0 -0 -0 -0 -0 -0 -0 -0 -4 -3 -0 -0 -0 -0 -0 -0 -0 -0 -1 -1 -0 -0 -1 -1 -0 -0 -0 -0 -0 -0
-0 -0 -0 -0 -0 -0 -0 -0 -0 -0 -0 -0 -0 -0 -0 -0 -0 -0 -0 -0 -0 -0 -0 -0 -0 -0 -0 -0 -0 -0 -0 -0 -1 -0 -0 -0 -0 -1 -0 -0 -1 -0 -1
-0 -0 -0 -0 -0 -0 -0 -0 -0 -0 -0 -0 -0 -0 -0 -0 -0 -0 -0 -0 -0 -0 -0 -0 -0 -0 -0 -0 -0 -0 -0 -0 -0 -0 -0 -0 -0 -0 -1 -0 -0 -1 -1
-0 -0 -0 -0 -0 -0 -0 -0 -0 -0 -0 -0 -0 -0 -0 -0 -0 -0 -0 -0 -0 -0 -0 -0 -0 -0 -0 -0 -0 -0 -0 -0 -0 -0 -1 -0 -0 -0 -0 -0 -0 -0 -1
-0 -0 -0 -0 -0 -0 -0 -0 -0 -0 -0 -0 -0 -0 -0 -0 -0 -0 -0 -0 -0 -0 -0 -0 -0 -0 -0 -0 -0 -0 -0 -0 -0 -0 -1 -0 -0 -0 -1 -0 -0 -0 -1
-0 -0 -0 -0 -0 -0 -0 -0 -0 -0 -0 -0 -0 -0 -0 -0 -0 -0 -0 -0 -0 -0 -0 -0 -0 -0 -0 -0 -0 -0 -0 -0 -0 -0 -0 -0 -0 -0 -0 -1 -0 -1 -0
-0 -0 -0 -0 -0 -0 -0 -0 -0 -0 -0 -0 -0 -0 -0 -0 -0 -0 -0 -0 -0 -0 -0 -0 -0 -0 -0 -0 -0 -0 -0 -0 -0 -0 -0 -0 -0 -0 -0 -1 -0 -0 -0
-0 -0 -0 -0 -0 -0 -0 -0 -0 -0 -0 -0 -0 -3 -11 -0 -0 -0 -0 -0 -0 -0 -0 -0 -0 -0 -0 -0 -0 -0 -0 -0 -0 -0 -0 -0 -0 -0 -0 -0 -0 -0 -0
-0 -0 -0 -0 -0 -0 -0 -0 -0 -0 -0 -0 -0 -11 -8 -12 -0 -0 -0 -0 -0 -0 -0 -0 -0 -0 -0 -0 -0 -0 -0 -0 -0 -0 -0 -0 -0 -0 -0 -0 -0 -0 -0
-0 -0 -0 -0 -0 -0 -0 -0 -0 -0 -0 -0 -0 -0 -9 -2 -0 -0 -0 -0 -0 -0 -0 -0 -0 -0 -0 -0 -0 -0 -0 -0 -0 -0 -0 -0 -0 -0 -0 -0 -0 -0 -0
-0 -0 -0 -0 -0 -0 -0 -0 -0 -0 -0 -0 -58 -3 -0 -0 -0 -0 -0 -0 -0 -0 -0 -0 -0 -0 -0 -0 -0 -0 -0 -0 -0 -0 -0 -0 -0 -0 -0 -0 -0 -0 -0
-0 -0 -0 -0 -0 -0 -0 -0 -0 -0 -0 -0 -46 -43 -56 -0 -0 -0 -0 -0 -0 -0 -0 -0 -0 -0 -0 -0 -0 -0 -0 -0 -0 -0 -0 -0 -0 -0 -0 -0 -0 -0 -0
-0 -0 -0 -0 -0 -0 -0 -0 -0 -0 -0 -0 -0 -0 -60 -14 -0 -0 -0 -0 -0 -0 -0 -0 -0 -0 -0 -0 -0 -0 -0 -0 -0 -0 -0 -0 -0 -0 -0 -0 -0 -0 -0
-0 -0 -0 -0 -0 -0 -0 -0 -0 -0 -0 -0 -0 -0 -4 -0 -0 -0 -0 -0 -0 -0 -0 -0 -0 -0 -0 -0 -0 -0 -0 -0 -0 -0 -0 -0 -0 -0 -0 -0 -0 -0 -0
-0 -0 -0 -0 -0 -0 -0 -0 -0 -0 -0 -0 -74 -3 -49 -0 -0 -0 -0 -0 -0 -4 -0 -0 -0 -0 -0 -0 -0 -0 -0 -0 -0 -0 -0 -0 -0 -0 -0 -0 -0 -0 -0
-0 -0 -0 -0 -0 -0 -0 -0 -0 -0 -0 -0 -0 -52 -0 -0 -0 -0 -0 -0 -0 -0 -0 -0 -0 -0 -0 -0 -0 -0 -0 -0 -0 -0 -0 -0 -0 -0 -0 -0 -0 -0 -0
-0 -0 -0 -0 -0 -0 -0 -0 -7 -6 -63 -70 -76 -85 -28 -9 -72 -0 -0 -0 -0 -0 -0 -0 -0 -0 -0 -0 -0 -0 -0 -0 -0 -0 -0 -0 -0 -0 -0 -0 -0 -0 -0
-0 -0 -0 -0 -0 -0 -23 -1 -37 -40 -32 -41 -50 -50 -4 -4 -5 -30 -0 -0 -0 -0 -0 -0 -0 -0 -0 -0 -0 -0 -0 -0 -0 -0 -0 -0 -0 -0 -0 -0 -0 -0 -0
-0 -0 -0 -0 -1 -39 -28 -21 -11 -15 -19 -0 -37 -0 -0 -0 -0 -0 -0 -0 -0 -0 -0 -0 -0 -0 -0 -0 -0 -0 -0 -0 -0 -0 -0 -0 -0 -0 -0 -0 -0 -0 -0
-0 -0 -0 -0 -0 -7 -8 -13 -0 -0 -0 -0 -0 -0 -0 -0 -0 -0 -0 -0 -0 -0 -0 -0 -0 -0 -0 -0 -0 -0 -0 -0 -0 -0 -0 -0 -0 -0 -0 -0 -0 -0 -0
-0 -0 -0 -0 -0 -0 -0 -0 -0 -0 -0 -0 -0 -0 -0 -0 -0 -0 -0 -0 -0 -0 -0 -0 -0 -0 -0 -0 -0 -0 -0 -0 -0 -0 -0 -0 -0 -0 -0 -0 -0 -0 -0
-0 -0 -0 -0 -0 -0 -0 -0 -0 -0 -0 -0 -0 -0 -0 -0 -0 -0 -0 -0 -0 -0 -0 -0 -0 -0 -0 -0 -0 -0 -0 -0 -0 -0 -0 -0 -0 -0 -0 -0 -0 -0 -0
-0 -0 -0 -0 -0 -0 -0 -0 -0 -0 -0 -0 -0 -0 -0 -0 -0 -0 -0 -0 -0 -0 -0 -0 -0 -0 -0 -0 -0 -0 -0 -0 -0 -0 -0 -0 -0 -0 -0 -0 -0 -0 -0
-0 -0 -0 -0 -0 -0 -0 -0 -0 -0 -0 -0 -0 -0 -0 -0 -0 -0 -0 -0 -0 -0 -0 -0 -0 -0 -0 -0 -0 -0 -0 -0 -0 -0 -0 -0 -0 -0 -0 -0 -0 -0 -0
-0 -0 -0 -0 -0 -0 -0 -0 -0 -0 -0 -0 -0 -0 -0 -0 -0 -0 -0 -0 -0 -0 -0 -0 -0 -0 -0 -0 -0 -0 -0 -0 -0 -0 -0 -0 -0 -0 -0 -0 -0 -0 -0
-0 -0 -0 -0 -0 -0 -0 -0 -0 -0 -0 -0 -0 -0 -0 -0 -0 -0 -0 -0 -0 -0 -0 -0 -0 -0 -0 -0 -0 -0 -0 -0 -0 -0 -0 -0 -0 -0 -0 -0 -0 -0 -0
Wind_Speed
6 7 8 9 10 10 12 13 13 13 14 15 14 15 17 18 20 21 21 22 21 18 20 20 20 21 21 21 22 22 23 23 24 24 25 26 27 28 29 30 31 32 33
5 5 7 7 8 9 12 13 13 13 14 14 13 13 15 16 17 19 20 20 19 19 19 19 19 19 20 20 21 21 22 22 22 23 23 25 26 27 28 29 30 32 32
3 5 6 7 8 10 12 12 12 13 13 14 13 13 14 14 16 18 18 18 18 19 19 19 19 19 19 19 19 20 20 20 21 21 22 23 25 26 26 28 30 31 32
2 5 7 8 10 11 12 13 13 14 14 14 13 13 13 14 15 17 17 17 17 18 18 19 18 18 18 17 17 17 18 18 19 20 20 22 22 24 26 28 29 30 31
2 3 7 9 11 12 12 12 14 14 15 15 15 15 14 13 13 15 15 15 17 17 17 17 17 17 15 15 15 15 16 16 16 17 19 20 21 24 25 26 28 29 30
4 5 8 9 10 11 12 14 14 14 16 15 17 17 15 15 13 13 13 13 14 14 14 14 14 14 14 14 14 14 14 14 14 15 16 18 19 22 24 25 27 28 29
7 7 8 8 9 10 11 12 14 14 14 16 17 19 18 16 14 13 13 12 13 14 14 13 14 13 13 13 13 12 12 12 13 14 14 16 18 20 23 25 27 27 28
7 7 6 8 8 9 10 11 13 15 15 13 18 20 22 20 18 14 13 13 13 13 13 13 13 12 12 12 11 10 10 9 10 12 13 15 16 19 21 24 25 26 27
9 9 9 9 9 10 11 12 12 13 16 15 13 19 21 21 22 19 16 15 16 15 15 13 13 13 12 11 11 10 10 9 9 10 12 13 16 18 20 23 24 26 26
11 11 11 11 11 12 13 14 14 15 16 18 18 17 20 23 24 28 23 19 19 18 17 15 14 13 13 14 13 12 11 10 9 9 10 13 15 17 19 22 23 24 25
13 13 13 14 14 15 16 17 18 17 18 19 19 21 21 23 25 27 30 28 23 21 19 19 17 16 15 15 15 13 10 10 8 10 10 11 14 15 17 21 22 24 24
15 15 16 16 17 18 18 18 19 19 19 20 21 22 23 25 25 26 29 30 30 27 21 19 18 18 18 17 14 12 11 9 8 8 8 9 11 14 17 20 22 22 23
18 17 17 18 18 19 20 20 20 20 21 22 23 24 24 25 25 26 28 30 31 29 27 23 21 20 18 16 17 12 10 8 6 7 8 9 11 13 16 20 21 22 21
21 21 19 18 19 20 20 21 21 22 22 22 24 25 27 26 25 26 29 30 36 34 30 28 24 22 21 20 15 15 12 8 8 7 8 10 9 12 15 18 20 22 22
22 21 19 20 20 20 20 20 21 21 22 23 24 25 27 27 26 27 27 29 31 38 38 32 35 25 24 24 17 15 13 10 8 7 6 6 9 11 14 17 19 20 21
21 21 20 20 20 20 20 20 20 21 22 23 24 24 24 25 26 27 28 29 31 35 39 34 28 26 21 17 20 14 12 11 9 8 10 9 9 12 14 16 19 19 20
20 20 20 20 20 20 20 21 22 23 25 25 23 24 25 27 29 29 29 29 30 31 36 36 30 29 24 20 17 16 12 11 10 10 9 9 10 12 14 17 18 18 19
21 21 21 21 20 20 21 22 24 22 23 23 23 25 27 29 29 29 28 30 31 29 31 36 30 28 26 21 19 15 13 12 13 11 11 11 11 12 15 17 18 18 19
22 21 21 20 21 21 21 20 19 21 21 22 26 27 28 28 28 27 27 29 30 29 29 30 29 28 25 20 19 14 16 13 14 14 12 12 12 12 15 18 17 18 18
21 21 20 20 21 20 19 19 21 22 25 27 28 28 28 29 28 27 26 25 27 29 29 30 31 27 22 21 15 16 17 16 16 13 11 11 13 15 16 17 16 16 17
18 19 20 21 20 19 19 21 22 25 26 26 26 26 27 27 26 26 26 27 26 27 28 26 26 25 23 21 19 19 20 18 20 14 14 14 14 17 19 19 19 17 17
16 17 19 19 19 19 18 21 22 24 25 26 28 29 29 29 29 28 26 25 22 23 22 24 23 23 22 20 18 18 18 19 25 14 15 16 15 18 17 19 18 18 17
17 18 18 17 18 18 20 21 23 23 25 25 27 28 29 28 27 26 26 24 21 20 20 20 20 20 19 17 16 18 19 18 16 17 14 19 15 17 18 20 18 17 16
17 16 16 17 18 18 21 22 24 25 25 26 27 28 27 28 26 23 23 21 19 15 13 13 13 14 14 11 14 16 14 15 18 16 13 21 16 19 21 22 20 18 17
15 16 17 18 19 21 22 23 24 25 26 26 26 26 28 29 29 26 23 21 20 17 13 13 14 14 14 14 14 13 14 15 18 18 15 21 22 25 27 27 23 19 17
14 15 17 18 19 21 22 24 23 24 25 26 27 28 28 27 27 26 23 21 22 20 18 18 16 16 16 15 12 13 15 18 20 23 19 21 24 26 32 28 25 20 19
Wind_Direction
22 8 11 9 8 8 7 13 20 22 22 23 26 25 24 22 20 19 17 15 20 28 24 24 24 23 22 22 23 23 24 24 24 24 24 24 22 20 21 19 17 17 19
58 27 2 4 5 1 354 359 4 8 9 13 19 22 20 19 19 18 16 16 17 18 20 19 17 18 19 19 20 20 21 21 22 23 23 23 19 22 20 17 17 16 17
58 16 358 353 351 346 347 351 358 360 3 5 7 12 12 15 15 14 15 16 15 13 11 10 10 11 12 14 16 17 18 19 21 22 22 23 20 20 21 15 13 13 13
346 337 334 337 335 336 338 344 348 346 350 354 357 359 2 4 6 7 9 10 11 6 5 4 5 5 7 9 12 14 15 17 18 18 20 20 21 18 17 13 14 14 13
293 322 324 325 326 326 333 338 339 342 342 345 347 349 351 353 356 359 0 1 3 4 359 359 360 0 3 4 6 9 11 13 16 16 16 17 19 14 15 16 14 14 12
283 302 311 317 320 322 326 328 331 336 339 341 341 343 344 345 347 347 351 353 354 357 359 357 355 355 355 356 358 1 5 9 12 13 14 14 14 14 10 15 14 12 11
278 287 295 305 312 312 316 321 326 329 331 336 339 339 340 339 337 336 338 339 340 343 346 351 352 350 347 347 349 351 355 2 5 6 8 10 11 11 9 11 9 10 9
252 248 259 282 290 301 308 312 317 324 325 328 332 334 331 331 327 325 326 325 327 330 332 338 341 342 340 336 337 338 341 348 353 356 360 5 9 5 7 7 8 8 9
239 253 260 266 277 287 294 299 304 308 315 320 316 327 333 328 333 331 318 317 318 318 320 320 327 328 329 327 325 324 327 333 340 346 352 356 359 360 2 3 5 7 8
253 254 256 265 275 285 288 293 299 300 306 309 314 304 314 323 323 327 326 318 316 311 309 309 311 312 320 322 320 315 314 316 327 335 342 346 350 354 358 0 1 3 5
258 261 261 270 276 283 288 292 296 295 298 302 304 312 309 308 313 313 318 323 320 311 305 302 304 305 305 308 310 309 299 304 313 323 332 341 344 352 355 356 357 359 1
272 266 272 274 279 284 284 287 290 292 294 296 300 303 302 310 310 309 310 313 312 317 304 301 296 295 297 300 301 304 299 293 295 308 322 332 342 345 348 350 351 356 359
277 278 277 279 281 283 287 291 292 291 294 294 296 298 299 296 299 303 304 308 309 314 314 306 297 292 289 295 297 295 295 280 268 289 307 321 333 339 344 345 348 351 356
284 288 286 285 287 290 291 292 293 295 297 295 295 295 297 297 296 296 296 303 308 308 311 307 303 296 289 283 291 297 296 277 268 274 296 311 324 333 338 340 342 345 349
288 290 291 292 294 294 293 293 294 295 297 296 297 297 296 297 298 298 297 296 294 306 307 312 300 300 295 294 291 290 283 278 261 262 268 293 313 324 332 335 337 340 343
288 291 292 293 295 295 296 295 295 296 296 298 299 299 298 300 301 302 301 301 301 302 304 310 313 308 304 289 289 282 275 281 261 262 285 295 305 315 323 329 330 335 339
286 288 291 294 295 295 295 295 295 298 299 300 299 300 300 305 306 306 306 304 305 308 309 313 321 317 310 302 303 293 288 285 281 277 271 281 300 311 316 323 325 328 334
287 290 292 292 294 295 297 298 300 301 301 301 303 307 307 311 310 311 312 311 311 310 311 311 317 320 318 310 306 292 285 290 285 274 270 283 294 305 311 317 319 320 326
291 292 293 294 297 300 303 303 303 304 307 310 314 314 314 317 316 317 316 316 316 316 315 314 316 320 319 314 310 303 296 288 285 277 275 279 293 297 306 313 314 314 318
296 299 302 303 307 309 312 315 317 318 319 320 321 321 322 322 321 321 320 320 321 319 318 318 317 319 318 321 312 299 295 296 291 288 280 282 295 302 305 308 308 306 310
303 306 308 311 316 320 322 321 322 320 321 322 325 326 326 326 325 324 323 323 321 320 320 319 318 319 316 316 303 307 301 300 292 292 286 290 299 305 309 308 310 306 304
309 312 314 317 321 325 328 326 325 323 323 324 324 326 327 327 327 327 325 323 321 320 318 318 317 314 314 316 315 310 305 307 305 289 281 290 295 302 307 310 303 301 300
310 313 318 323 324 327 329 329 328 327 326 327 328 329 330 333 335 335 334 333 329 326 326 324 320 317 315 315 316 313 306 305 301 307 295 296 301 302 312 315 308 298 293
310 316 321 324 326 330 329 330 328 327 327 329 330 331 334 336 340 342 342 339 338 335 333 331 325 327 327 327 324 314 305 303 309 305 296 306 311 313 322 322 317 306 299
316 319 323 326 326 326 329 328 327 326 326 329 330 332 332 333 335 339 340 341 342 341 342 343 340 338 335 327 323 322 314 307 298 299 287 305 312 315 321 323 323 315 305
316 321 323 327 329 326 328 327 328 326 325 326 328 329 332 335 337 338 341 342 340 341 340 341 340 335 333 330 324 316 313 302 304 309 300 296 308 315 320 325 325 321 316